User: anonymous   Login
Location: Cicognara
(44.9500°N, 10.4667°E)
Time: 00:26:05
(UTC+00:00)
Language:

Cosmos 1447 Rocket - Orbit

View from above orbital plane
View from above orbital plane
View from above satellite
View from above satellite

Ground track
Ground track

The orbit data is extracted from the following two-line orbital elements,

1 13917U 83021B   21262.48100149  .00000027  00000-0  12151-4 0  9998
2 13917  82.9467 171.2096 0027463 216.0616 317.3764 13.76867710933348
Epoch (UTC): 19 September 2021 11:32:38
Eccentricity: 0.0027463
inclination: 82.9467°
perigee height: 955 km
apogee height: 995 km
right ascension of ascending node: 171.2096°
argument of perigee: 216.0616°
revolutions per day: 13.76867710
mean anomaly at epoch: 317.3764°
orbit number at epoch: 93334

The dashed part of the orbit path shows where the satellite is in the earth's shadow,  

DLR